PILOTS ONLINE: 609    ATC ONLINE: 145

KHHR

Jack Northrop Field Hawthorne Municipal Airport

Location

City Hawthorne
Country  United States
Latitude 33° 55' 22" N
Longitude 118° 20' 5" W
Elevation 66 ft
Type Medium Airport

Map

Weather

METAR
2014/10/25 10:53
KHHR 251053Z AUTO 22003KT 10SM OVC006 18/17 A2999 RMK AO2 CIG 005V010 SLP155 T01830167
TAF
No TAF available

Runways

07/25 4956 ft / 100 ft

Outbound flights

Callsign Flying to Pilot ATD/STD ETA Aircraft

Inbound flights

Callsign Flying from Pilot ATD ETA Aircraft